Regional Weather Roundup
Issued by NWS Huntsville, AL

Home | Current Version | Previous Version | Text Only | Print | Product List | Glossary On
Versions: 1 2 3 4 5 6 7 8 9 10 11 12 13 14 15 16 17 18 19 20 21 22 23 24 25 26 27 28 29 30 31 32 33 34 35 36 37 38 39 40 41 42 43 44 45 46 47 48 49 50
524
ASUS44 KHUN 260010
RWRHUN

WEATHER ROUNDUP FOR THE TENNESSEE VALLEY
NATIONAL WEATHER SERVICE HUNTSVILLE AL
600 PM CST SAT FEB 25 2017

ALZ001>004-260100-
NORTHWEST ALABAMA

CITY           SKY/WX    TMP DP  RH WIND       PRES   REMARKS
COURTLAND HCN    N/A     46 N/A N/A NW10        N/A
RUSSELLVILLE     N/A     46 N/A N/A MISG        N/A
SHOALS AIRPORT CLEAR     46  20  35 NW10      30.09R
6HR MIN TEMP:  46; 6HR MAX TEMP:  52;

SHOALS TVA RES   N/A     46 N/A N/A MISG        N/A
$$

ALZ005>007-016-260100-
NORTH CENTRAL ALABAMA

CITY           SKY/WX    TMP DP  RH WIND       PRES   REMARKS
CULLMAN AG STN   N/A     48 N/A N/A NW6         N/A
DECATUR AP     CLEAR     47  22  37 NW12      30.07R
6HR MIN TEMP:  47; 6HR MAX TEMP:  52;

HUNTSVILLE AP  CLEAR     47  22  37 NW10      30.06R
6HR MIN TEMP:  47; 6HR MAX TEMP:  53;

MERIDIANVILLE  CLEAR     45  21  39 NW7       30.06R
REDSTONE ARSN  CLEAR     47  22  38 NW8       30.05R
VINEMONT AP    FAIR      45  20  36 NW5       30.07R
$$

ALZ008>010-260100-
NORTHEAST ALABAMA

CITY           SKY/WX    TMP DP  RH WIND       PRES   REMARKS
ALBERTVILLE    CLEAR    N/A N/A N/A NW9       30.03R
FORT PAYNE     CLEAR     46  18  31 NW7       30.02R
SCOTTSBORO AP  CLEAR     48  19  32 W8        30.05R
SCOTTSBORO HCN   N/A     50 N/A N/A MISG        N/A
VALLEY HEAD      N/A     48 N/A N/A MISG        N/A
$$

TNZ076-096-097-260100-
SOUTHEASTERN MIDDLE TENNESSEE

CITY           SKY/WX    TMP DP  RH WIND       PRES   REMARKS
TULLAHOMA      CLEAR     39  12  33 NW9       30.04S WCI  33
WINCHESTER     CLEAR     43  19  39 N6        30.04R
$$

...SURROUNDING SITES...

CITY           SKY/WX    TMP DP  RH WIND       PRES   REMARKS
ATLANTA        CLEAR     54  14  20 NW14      29.96R
ANNISTON       CLEAR     53  21  28 N7        30.02R
BIRMINGHAM     CLEAR     52  21  29 W10       30.07R
CHATTANOOGA    CLEAR     48  21  34 NW8       30.02R
CORINTH        FAIR      43  19  39 NW8       30.11R
DALTON         CLEAR     46  23  39 NW10      30.00R
GADSDEN        CLEAR     49  24  37 NW7       30.04R
GOLDEN TRNGL   CLEAR     48  23  37 NW7       30.07
HALEYVILLE     FAIR      45  20  36 NW5       30.09R
JACKSON TN     CLEAR     41  22  46 NW7       30.14R
MEMPHIS        CLEAR     41  21  44 N6        30.14S
NASHVILLE      CLEAR     44  16  32 NW10      30.08R
OXFORD MS      FAIR      43  23  45 NW9       30.15S
ROME           CLEAR     51  21  30 W8        30.00R
SAVANNAH       CLEAR     43  21  42 NW6G12    30.10S
TUPELO         CLEAR     47  18  31 NW7       30.11R
TUSCALOOSA     CLEAR     52  25  35 NW7       30.09R
$$

...GULF COAST WEATHER...

CITY           SKY/WX    TMP DP  RH WIND       PRES   REMARKS
GULFPORT       CLEAR     63  29  27 NW9       30.05R
PASCAGOULA     CLEAR     63  24  22 NW5       30.05R
MOBILE         PTCLDY    62  28  27 NW9       30.05R
GULF SHORES    CLEAR     64  31  29 N5        30.02R
PENSACOLA      CLEAR     65  30  27 NW5       30.00R
DESTIN         CLEAR     72  33  24 NW9       29.98R
PANAMA CITY    CLEAR     64  45  48 NW3       29.95R
APPALACHICOLA  CLEAR     67  52  58 NW8       29.93R
$$





USA.gov is the U.S. government's official web portal to all federal, state and local government web resources and services.